| time (UTC) | temp C | wind direction | speed KPH | gust KPH | rain 1hr cm | rain 24hr cm | rain mn cm | humidity % | barometer mb |
| 20260502151856 | 10 | 290 | 9.7 | 16.1 | 0.00 | 0.46 | 0.46 | 85 | 1010.8 |
| 20260502151356 | 10 | 324 | 4.8 | 14.5 | 0.00 | 0.46 | 0.46 | 86 | 1010.5 |
| 20260502150356 | 10 | 316 | 8.0 | 12.9 | 0.00 | 0.46 | 0.46 | 84 | 1010.5 |
| 20260502130356 | 8 | 236 | 3.2 | 4.8 | 0.00 | 0.46 | 0.46 | 96 | 1010.9 |
| 20260502123356 | 8 | 253 | 0.0 | 0.0 | 0.00 | 0.46 | 0.46 | 96 | 1011.0 |
| 20260502122856 | 8 | 253 | 0.0 | 0.0 | 0.00 | 0.46 | 0.46 | 96 | 1010.9 |
| 20260502122356 | 8 | 253 | 0.0 | 0.0 | 0.00 | 0.46 | 0.46 | 96 | 1010.8 |
| 20260502121855 | 7 | 253 | 0.0 | 0.0 | 0.00 | 0.46 | 0.46 | 96 | 1010.8 |
| 20260502121355 | 7 | 253 | 0.0 | 0.0 | 0.00 | 0.46 | 0.46 | 97 | 1010.8 |
| 20260502120356 | 7 | 240 | 1.6 | 3.2 | 0.03 | 0.46 | 0.46 | 96 | 1010.8 |
| 20260502115856 | 7 | 230 | 0.0 | 1.6 | 0.03 | 0.46 | 0.46 | 96 | 1010.9 |
| 20260502115355 | 7 | 250 | 1.6 | 3.2 | 0.03 | 0.46 | 0.46 | 97 | 1011.0 |
| 20260502114855 | 7 | 226 | 1.6 | 3.2 | 0.05 | 0.46 | 0.46 | 97 | 1010.9 |
| 20260502114356 | 7 | 237 | 0.0 | 0.0 | 0.08 | 0.46 | 0.46 | 97 | 1010.9 |
| 20260502113856 | 7 | 237 | 0.0 | 0.0 | 0.10 | 0.46 | 0.46 | 97 | 1010.9 |
| 20260502113356 | 7 | 237 | 0.0 | 1.6 | 0.13 | 0.46 | 0.46 | 96 | 1010.9 |
| 20260502112856 | 7 | 311 | 0.0 | 0.0 | 0.20 | 0.46 | 0.46 | 97 | 1010.8 |
| 20260502112356 | 7 | 311 | 0.0 | 0.0 | 0.25 | 0.46 | 0.46 | 97 | 1010.8 |
| 20260502111856 | 7 | 311 | 0.0 | 0.0 | 0.25 | 0.46 | 0.46 | 97 | 1010.8 |
| 20260502111356 | 7 | 311 | 0.0 | 0.0 | 0.25 | 0.46 | 0.46 | 96 | 1010.8 |
| 20260502110856 | 7 | 311 | 0.0 | 0.0 | 0.25 | 0.46 | 0.46 | 96 | 1010.7 |
| 20260502110356 | 7 | 311 | 0.0 | 0.0 | 0.23 | 0.43 | 0.43 | 96 | 1010.9 |
| 20260502105856 | 7 | 311 | 0.0 | 3.2 | 0.23 | 0.43 | 0.43 | 96 | 1011.0 |
| 20260502105356 | 7 | 248 | 0.0 | 3.2 | 0.23 | 0.43 | 0.43 | 96 | 1011.0 |
| 20260502104857 | 7 | 250 | 0.0 | 0.0 | 0.23 | 0.41 | 0.41 | 96 | 1011.1 |
| 20260502104356 | 7 | 250 | 0.0 | 1.6 | 0.23 | 0.38 | 0.38 | 96 | 1011.1 |
| 20260502103856 | 7 | 192 | 0.0 | 0.0 | 0.25 | 0.36 | 0.36 | 96 | 1011.1 |
| 20260502103356 | 7 | 192 | 0.0 | 1.6 | 0.25 | 0.33 | 0.33 | 96 | 1011.0 |
| 20260502102856 | 7 | 215 | 0.0 | 0.0 | 0.18 | 0.25 | 0.25 | 96 | 1010.8 |
| 20260502101856 | 7 | 215 | 0.0 | 0.0 | 0.13 | 0.20 | 0.20 | 96 | 1010.5 |
| 20260502101356 | 7 | 215 | 0.0 | 0.0 | 0.13 | 0.20 | 0.20 | 96 | 1010.3 |
| 20260502100856 | 7 | 215 | 0.0 | 0.0 | 0.13 | 0.20 | 0.20 | 96 | 1010.3 |
| 20260502091356 | 7 | 109 | 0.0 | 0.0 | 0.00 | 0.08 | 0.08 | 96 | 1010.1 |
| 20260502090857 | 7 | 109 | 0.0 | 1.6 | 0.00 | 0.08 | 0.08 | 96 | 1010.1 |
| 20260502090356 | 7 | 217 | 0.0 | 0.0 | 0.00 | 0.08 | 0.08 | 95 | 1010.2 |
| 20260502070857 | 7 | 298 | 1.6 | 4.8 | 0.03 | 0.03 | 0.03 | 92 | 1009.9 |
| 20260502070357 | 7 | 271 | 0.0 | 0.0 | 0.03 | 0.03 | 0.03 | 91 | 1009.9 |
| 20260502065857 | 7 | 271 | 0.0 | 0.0 | 0.03 | 0.03 | 0.03 | 92 | 1010.0 |
| 20260502065357 | 7 | 278 | 1.6 | 3.2 | 0.03 | 0.03 | 0.03 | 92 | 1010.1 |
| 20260502064856 | 8 | 284 | 0.0 | 3.2 | 0.03 | 0.03 | 0.03 | 91 | 1010.2 |
| 20260502064357 | 8 | 254 | 3.2 | 4.8 | 0.03 | 0.03 | 0.03 | 91 | 1010.3 |
| 20260502063856 | 8 | 255 | 3.2 | 3.2 | 0.00 | 0.00 | 0.00 | 90 | 1010.3 |
| 20260502063356 | 8 | 292 | 1.6 | 3.2 | 0.00 | 0.00 | 0.00 | 90 | 1010.1 |
| 20260502062856 | 8 | 331 | 1.6 | 3.2 | 0.00 | 0.00 | 0.00 | 90 | 1010.1 |
| 20260502062356 | 8 | 21 | 3.2 | 3.2 | 0.00 | 0.00 | 0.00 | 88 | 1010.2 |
| 20260502061856 | 8 | 191 | 0.0 | 1.6 | 0.00 | 0.00 | 0.00 | 88 | 1010.5 |
| 20260502061357 | 8 | 288 | 3.2 | 3.2 | 0.00 | 0.00 | 0.00 | 89 | 1010.7 |
| 20260502060856 | 8 | 265 | 1.6 | 3.2 | 0.00 | 0.00 | 0.00 | 88 | 1010.4 |
| 20260502055857 | 8 | 188 | 1.6 | 1.6 | 0.00 | 0.00 | 0.00 | 87 | 1010.1 |
| 20260502054856 | 8 | 237 | 0.0 | 3.2 | 0.00 | 0.00 | 0.00 | 86 | 1010.1 |
| 20260502054356 | 8 | 244 | 0.0 | 0.0 | 0.00 | 0.00 | 0.00 | 85 | 1010.2 |
| 20260502053857 | 8 | 244 | 0.0 | 0.0 | 0.00 | 0.00 | 0.00 | 85 | 1010.1 |
| 20260502052856 | 9 | 244 | 0.0 | 0.0 | 0.00 | 0.00 | 0.00 | 83 | 1010.0 |
| 20260502052356 | 9 | 244 | 0.0 | 0.0 | 0.00 | 0.00 | 0.00 | 82 | 1010.0 |
| 20260502051356 | 9 | 263 | 0.0 | 3.2 | 0.00 | 0.00 | 0.00 | 76 | 1010.2 |
| 20260502050856 | 9 | 305 | 1.6 | 4.8 | 0.00 | 0.00 | 0.00 | 77 | 1010.4 |
| 20260502045356 | 9 | 279 | 3.2 | 3.2 | 0.00 | 0.00 | 0.00 | 76 | 1010.8 |
| 20260502044856 | 9 | 192 | 0.0 | 3.2 | 0.00 | 0.00 | 0.00 | 75 | 1010.8 |
| 20260502044356 | 9 | 248 | 3.2 | 3.2 | 0.00 | 0.00 | 0.00 | 75 | 1010.8 |
| 20260502043857 | 9 | 273 | 3.2 | 4.8 | 0.00 | 0.00 | 0.00 | 76 | 1010.7 |
| 20260502042856 | 9 | 282 | 3.2 | 8.0 | 0.00 | 0.00 | 0.00 | 74 | 1010.7 |
| 20260502042356 | 9 | 259 | 4.8 | 8.0 | 0.00 | 0.00 | 0.00 | 74 | 1010.4 |
| 20260502041857 | 9 | 255 | 3.2 | 4.8 | 0.00 | 0.00 | 0.00 | 72 | 1010.3 |
| 20260502041357 | 9 | 174 | 0.0 | 0.0 | 0.00 | 0.00 | 0.00 | 71 | 1010.2 |
| 20260502040857 | 9 | 174 | 0.0 | 0.0 | 0.00 | 0.00 | 0.00 | 70 | 1010.2 |
| 20260502040357 | 9 | 174 | 0.0 | 0.0 | 0.00 | 0.00 | 0.00 | 70 | 1010.3 |
| 20260502035856 | 9 | 174 | 0.0 | 0.0 | 0.00 | 0.00 | 0.00 | 70 | 1010.3 |
| 20260502035356 | 9 | 174 | 0.0 | 0.0 | 0.00 | 0.00 | 0.00 | 70 | 1010.2 |
| 20260502034857 | 9 | 174 | 0.0 | 0.0 | 0.00 | 0.00 | 0.00 | 67 | 1010.3 |
| 20260502034359 | 9 | 174 | 0.0 | 0.0 | 0.00 | 0.00 | 0.00 | 68 | 1010.3 |
| 20260502033857 | 9 | 174 | 0.0 | 0.0 | 0.00 | 0.00 | 0.00 | 68 | 1010.3 |
| 20260502033356 | 9 | 174 | 0.0 | 0.0 | 0.00 | 0.00 | 0.00 | 68 | 1010.3 |
| 20260502032856 | 9 | 174 | 0.0 | 0.0 | 0.00 | 0.00 | 0.00 | 66 | 1010.3 |
| 20260502032356 | 9 | 174 | 0.0 | 0.0 | 0.00 | 0.00 | 0.00 | 68 | 1010.3 |
| 20260502031856 | 9 | 174 | 0.0 | 0.0 | 0.00 | 0.00 | 0.00 | 67 | 1010.4 |
| 20260502031356 | 8 | 174 | 0.0 | 0.0 | 0.00 | 0.00 | 0.00 | 65 | 1010.4 |
| 20260502030857 | 8 | 174 | 0.0 | 0.0 | 0.00 | 0.00 | 0.00 | 69 | 1010.6 |
| 20260502030356 | 8 | 174 | 0.0 | 0.0 | 0.00 | 0.00 | 0.00 | 68 | 1010.5 |
| 20260502025857 | 8 | 174 | 0.0 | 0.0 | 0.00 | 0.00 | 0.00 | 67 | 1010.7 |
| 20260502025357 | 9 | 174 | 0.0 | 0.0 | 0.00 | 0.00 | 0.00 | 68 | 1010.5 |
| 20260502024856 | 9 | 174 | 0.0 | 0.0 | 0.00 | 0.00 | 0.00 | 67 | 1010.5 |
| 20260502023856 | 9 | 174 | 0.0 | 0.0 | 0.00 | 0.00 | 0.00 | 64 | 1010.4 |
| 20260502023356 | 10 | 188 | 1.6 | 1.6 | 0.00 | 0.00 | 0.00 | 64 | 1010.4 |
| 20260502022857 | 10 | 243 | 1.6 | 1.6 | 0.00 | 0.00 | 0.00 | 64 | 1010.5 |
| 20260502022356 | 10 | 243 | 1.6 | 3.2 | 0.00 | 0.00 | 0.00 | 62 | 1010.5 |
| 20260502021856 | 10 | 229 | 1.6 | 1.6 | 0.00 | 0.00 | 0.00 | 62 | 1010.4 |
| 20260502021357 | 10 | 259 | 3.2 | 3.2 | 0.00 | 0.00 | 0.00 | 62 | 1010.3 |
| 20260502020856 | 10 | 286 | 1.6 | 3.2 | 0.00 | 0.00 | 0.00 | 61 | 1010.4 |
| 20260502020356 | 10 | 285 | 3.2 | 4.8 | 0.00 | 0.00 | 0.00 | 61 | 1010.5 |
| 20260502015400 | 10 | 294 | 4.8 | 11.3 | 0.00 | 0.00 | 0.00 | 63 | 1010.4 |
| 20260502013856 | 10 | 309 | 3.2 | 9.7 | 0.00 | 0.00 | 0.00 | 61 | 1010.3 |
| 20260502012856 | 10 | 310 | 3.2 | 4.8 | 0.00 | 0.00 | 0.00 | 62 | 1010.2 |
| 20260502011857 | 10 | 288 | 3.2 | 4.8 | 0.00 | 0.00 | 0.00 | 59 | 1010.1 |
| 20260502011356 | 11 | 302 | 3.2 | 4.8 | 0.00 | 0.00 | 0.00 | 60 | 1010.0 |
| 20260502010856 | 11 | 300 | 3.2 | 4.8 | 0.00 | 0.00 | 0.00 | 59 | 1009.9 |
| 20260502010357 | 11 | 292 | 3.2 | 4.8 | 0.00 | 0.00 | 0.00 | 58 | 1009.9 |
| 20260502005857 | 11 | 309 | 4.8 | 8.0 | 0.00 | 0.00 | 0.00 | 59 | 1009.8 |
| 20260502005356 | 11 | 317 | 4.8 | 4.8 | 0.00 | 0.00 | 0.00 | 59 | 1009.8 |
| 20260502004857 | 11 | 346 | 0.0 | 0.0 | 0.00 | 0.00 | 0.00 | 58 | 1009.8 |
| 20260502003856 | 11 | 346 | 0.0 | 0.0 | 0.00 | 0.00 | 0.00 | 59 | 1009.7 |
| 20260502003357 | 11 | 346 | 0.0 | 3.2 | 0.00 | 0.00 | 0.00 | 56 | 1009.6 |
| 20260502002857 | 12 | 319 | 3.2 | 4.8 | 0.00 | 0.00 | 0.00 | 54 | 1009.6 |
| 20260502002356 | 12 | 282 | 0.0 | 0.0 | 0.00 | 0.00 | 0.00 | 52 | 1009.5 |
| 20260502001857 | 12 | 282 | 0.0 | 0.0 | 0.00 | 0.00 | 0.00 | 52 | 1009.4 |
| 20260502001357 | 12 | 282 | 0.0 | 0.0 | 0.00 | 0.00 | 0.00 | 51 | 1009.4 |
| 20260502000857 | 12 | 282 | 0.0 | 0.0 | 0.00 | 0.00 | 0.00 | 51 | 1009.3 |
| 20260502000357 | 12 | 282 | 0.0 | 0.0 | 0.00 | 0.00 | 0.00 | 50 | 1009.2 |
| 20260501235857 | 12 | 282 | 0.0 | 0.0 | 0.00 | 0.00 | 0.00 | 50 | 1009.2 |
| 20260501235357 | 12 | 282 | 0.0 | 0.0 | 0.00 | 0.00 | 0.00 | 50 | 1009.1 |
| 20260501234857 | 12 | 282 | 0.0 | 1.6 | 0.00 | 0.00 | 0.00 | 50 | 1009.1 |
| 20260501234357 | 12 | 252 | 1.6 | 3.2 | 0.00 | 0.00 | 0.00 | 52 | 1009.0 |
| 20260501233357 | 12 | 263 | 3.2 | 4.8 | 0.00 | 0.00 | 0.00 | 51 | 1008.9 |
| 20260501232857 | 12 | 289 | 3.2 | 3.2 | 0.00 | 0.00 | 0.00 | 49 | 1008.8 |
| 20260501232357 | 13 | 274 | 0.0 | 3.2 | 0.00 | 0.00 | 0.00 | 50 | 1008.7 |
| 20260501231857 | 13 | 281 | 1.6 | 3.2 | 0.00 | 0.00 | 0.00 | 47 | 1008.8 |
| 20260501230856 | 13 | 203 | 0.0 | 1.6 | 0.00 | 0.00 | 0.00 | 47 | 1008.6 |
| 20260501225856 | 13 | 322 | 3.2 | 9.7 | 0.00 | 0.00 | 0.00 | 45 | 1008.5 |
| 20260501225357 | 13 | 253 | 1.6 | 4.8 | 0.00 | 0.00 | 0.00 | 48 | 1008.5 |
| 20260501224857 | 13 | 302 | 1.6 | 3.2 | 0.00 | 0.00 | 0.00 | 45 | 1008.5 |
| 20260501224356 | 13 | 303 | 3.2 | 8.0 | 0.00 | 0.00 | 0.00 | 45 | 1008.5 |
| 20260501222857 | 14 | 275 | 8.0 | 12.9 | 0.00 | 0.00 | 0.00 | 44 | 1008.5 |
| 20260501222357 | 14 | 286 | 4.8 | 8.0 | 0.00 | 0.00 | 0.00 | 44 | 1008.5 |
| 20260501221857 | 14 | 293 | 6.4 | 11.3 | 0.00 | 0.00 | 0.00 | 44 | 1008.5 |
| 20260501221357 | 15 | 252 | 8.0 | 16.1 | 0.00 | 0.00 | 0.00 | 42 | 1008.5 |
| 20260501215856 | 15 | 292 | 9.7 | 16.1 | 0.00 | 0.00 | 0.00 | 40 | 1008.5 |
| 20260501215356 | 15 | 303 | 9.7 | 14.5 | 0.00 | 0.00 | 0.00 | 40 | 1008.5 |
| 20260501214357 | 15 | 284 | 6.4 | 20.9 | 0.00 | 0.00 | 0.00 | 41 | 1008.6 |
| 20260501213856 | 15 | 291 | 9.7 | 16.1 | 0.00 | 0.00 | 0.00 | 39 | 1008.6 |
| 20260501213356 | 15 | 278 | 4.8 | 8.0 | 0.00 | 0.00 | 0.00 | 41 | 1008.6 |
| 20260501212857 | 15 | 321 | 6.4 | 14.5 | 0.00 | 0.00 | 0.00 | 40 | 1008.6 |
| 20260501212357 | 15 | 269 | 6.4 | 11.3 | 0.00 | 0.00 | 0.00 | 43 | 1008.7 |
| 20260501211857 | 15 | 278 | 8.0 | 14.5 | 0.00 | 0.00 | 0.00 | 40 | 1008.6 |
| 20260501211357 | 15 | 269 | 6.4 | 9.7 | 0.00 | 0.00 | 0.00 | 41 | 1008.8 |
| 20260501210857 | 15 | 275 | 9.7 | 12.9 | 0.00 | 0.00 | 0.00 | 44 | 1008.8 |
| 20260501210357 | 15 | 279 | 8.0 | 16.1 | 0.00 | 0.00 | 0.00 | 44 | 1008.7 |
| 20260501205856 | 15 | 273 | 11.3 | 14.5 | 0.00 | 0.00 | 0.00 | 41 | 1008.8 |
| 20260501205356 | 15 | 289 | 9.7 | 22.5 | 0.00 | 0.00 | 0.00 | 41 | 1008.7 |
| 20260501204857 | 15 | 299 | 6.4 | 12.9 | 0.00 | 0.00 | 0.00 | 41 | 1008.7 |
| 20260501204357 | 15 | 261 | 4.8 | 14.5 | 0.00 | 0.00 | 0.00 | 39 | 1008.6 |
| 20260501203857 | 15 | 310 | 3.2 | 12.9 | 0.00 | 0.00 | 0.00 | 41 | 1008.6 |
| 20260501203357 | 15 | 18 | 4.8 | 11.3 | 0.00 | 0.00 | 0.00 | 42 | 1008.6 |
| 20260501202857 | 15 | 265 | 8.0 | 12.9 | 0.00 | 0.00 | 0.00 | 44 | 1008.7 |
| 20260501202356 | 15 | 304 | 4.8 | 8.0 | 0.00 | 0.00 | 0.00 | 42 | 1008.8 |
| 20260501201857 | 16 | 315 | 9.7 | 14.5 | 0.00 | 0.00 | 0.00 | 40 | 1008.9 |
| 20260501201356 | 16 | 287 | 8.0 | 16.1 | 0.00 | 0.00 | 0.00 | 42 | 1008.8 |
| 20260501200856 | 15 | 255 | 4.8 | 16.1 | 0.00 | 0.00 | 0.00 | 43 | 1008.7 |
| 20260501200356 | 15 | 270 | 8.0 | 14.5 | 0.00 | 0.00 | 0.00 | 43 | 1008.8 |
| 20260501195857 | 15 | 260 | 8.0 | 19.3 | 0.00 | 0.00 | 0.00 | 43 | 1008.9 |
| 20260501195356 | 15 | 323 | 8.0 | 12.9 | 0.00 | 0.00 | 0.00 | 43 | 1008.9 |
| 20260501194857 | 15 | 235 | 6.4 | 11.3 | 0.00 | 0.00 | 0.00 | 45 | 1008.8 |
| 20260501194400 | 15 | 293 | 9.7 | 20.9 | 0.00 | 0.00 | 0.00 | 44 | 1009.0 |
| 20260501193357 | 14 | 5 | 4.8 | 8.0 | 0.00 | 0.00 | 0.00 | 45 | 1009.0 |
| 20260501192357 | 15 | 320 | 8.0 | 12.9 | 0.00 | 0.00 | 0.00 | 47 | 1009.1 |
| 20260501191857 | 15 | 320 | 4.8 | 11.3 | 0.00 | 0.00 | 0.00 | 43 | 1009.1 |
| 20260501191357 | 15 | 295 | 9.7 | 27.4 | 0.00 | 0.00 | 0.00 | 43 | 1009.2 |
| 20260501190857 | 15 | 303 | 6.4 | 12.9 | 0.00 | 0.00 | 0.00 | 46 | 1009.1 |
| 20260501190357 | 14 | 267 | 8.0 | 12.9 | 0.00 | 0.00 | 0.00 | 49 | 1009.2 |
| 20260501185856 | 14 | 299 | 11.3 | 19.3 | 0.00 | 0.00 | 0.00 | 44 | 1009.3 |
| 20260501185357 | 14 | 296 | 8.0 | 12.9 | 0.00 | 0.00 | 0.00 | 49 | 1009.4 |
| 20260501184857 | 14 | 311 | 11.3 | 19.3 | 0.00 | 0.00 | 0.00 | 45 | 1009.5 |
| 20260501184356 | 14 | 17 | 8.0 | 14.5 | 0.00 | 0.00 | 0.00 | 44 | 1009.6 |
| 20260501183857 | 14 | 268 | 6.4 | 16.1 | 0.00 | 0.00 | 0.00 | 47 | 1009.6 |
| 20260501183357 | 14 | 305 | 8.0 | 14.5 | 0.00 | 0.00 | 0.00 | 43 | 1009.7 |
| 20260501182857 | 14 | 285 | 9.7 | 19.3 | 0.00 | 0.00 | 0.00 | 48 | 1009.7 |
| 20260501182357 | 13 | 321 | 8.0 | 16.1 | 0.00 | 0.00 | 0.00 | 47 | 1009.8 |
| 20260501181857 | 13 | 323 | 9.7 | 14.5 | 0.00 | 0.00 | 0.00 | 46 | 1009.8 |
| 20260501181357 | 13 | 301 | 8.0 | 14.5 | 0.00 | 0.00 | 0.00 | 45 | 1009.8 |
| 20260501180357 | 13 | 24 | 8.0 | 16.1 | 0.00 | 0.00 | 0.00 | 45 | 1009.8 |
| 20260501175857 | 13 | 272 | 9.7 | 19.3 | 0.00 | 0.00 | 0.00 | 45 | 1009.9 |
| 20260501174858 | 13 | 306 | 9.7 | 19.3 | 0.00 | 0.00 | 0.00 | 47 | 1010.0 |
| 20260501174357 | 13 | 8 | 3.2 | 19.3 | 0.00 | 0.00 | 0.00 | 47 | 1010.0 |
| 20260501173357 | 13 | 287 | 9.7 | 14.5 | 0.00 | 0.00 | 0.00 | 46 | 1010.1 |
| 20260501172857 | 13 | 284 | 11.3 | 16.1 | 0.00 | 0.00 | 0.00 | 50 | 1009.9 |
| 20260501171857 | 13 | 309 | 8.0 | 14.5 | 0.00 | 0.00 | 0.00 | 45 | 1010.0 |
| 20260501170857 | 13 | 310 | 8.0 | 24.1 | 0.00 | 0.00 | 0.00 | 46 | 1010.1 |
| 20260501170357 | 13 | 326 | 14.5 | 22.5 | 0.00 | 0.00 | 0.00 | 46 | 1010.2 |
| 20260501165857 | 13 | 298 | 8.0 | 20.9 | 0.00 | 0.00 | 0.00 | 47 | 1010.1 |
| 20260501165356 | 13 | 294 | 9.7 | 16.1 | 0.00 | 0.00 | 0.00 | 45 | 1010.2 |
| 20260501164857 | 13 | 295 | 14.5 | 22.5 | 0.00 | 0.00 | 0.00 | 46 | 1010.1 |
| 20260501164357 | 13 | 307 | 12.9 | 22.5 | 0.00 | 0.00 | 0.00 | 48 | 1010.1 |
| 20260501163857 | 13 | 343 | 9.7 | 19.3 | 0.00 | 0.00 | 0.00 | 45 | 1010.2 |
| 20260501163357 | 13 | 25 | 6.4 | 20.9 | 0.00 | 0.00 | 0.00 | 46 | 1010.2 |
| 20260501162857 | 13 | 326 | 9.7 | 20.9 | 0.00 | 0.03 | 0.00 | 50 | 1010.3 |
| 20260501162357 | 13 | 315 | 8.0 | 16.1 | 0.00 | 0.05 | 0.00 | 47 | 1010.3 |
| 20260501161857 | 13 | 270 | 9.7 | 16.1 | 0.00 | 0.05 | 0.00 | 48 | 1010.3 |
| 20260501161358 | 13 | 310 | 11.3 | 22.5 | 0.00 | 0.05 | 0.00 | 51 | 1010.3 |
| 20260501160857 | 13 | 307 | 11.3 | 24.1 | 0.00 | 0.05 | 0.00 | 46 | 1010.4 |
| 20260501160357 | 13 | 324 | 9.7 | 16.1 | 0.00 | 0.05 | 0.00 | 56 | 1010.5 |
| 20260501155857 | 13 | 266 | 9.7 | 14.5 | 0.00 | 0.05 | 0.00 | 51 | 1010.5 |
| 20260501154357 | 12 | 314 | 11.3 | 16.1 | 0.00 | 0.08 | 0.00 | 51 | 1010.8 |